Volver al catálogo

SL-12 DEB

LostHEO
NORAD 38681·DEBRIS·🇷🇺 Russia

Lanzado Apr 8, 1996 desde Baikonur Cosmodrome

Loading…

Próximos Pases (próximas 24 horas)

TLE

ObsoletoSource: Space-Track

Época: Oct 16, 2012, 00:05 UTC

1 38681U 96021F   12290.00385707 -.00000102  00000-0  10000-3 0  9996
2 38681 006.2499 187.7533 3726526 003.9754 358.4311 01.64357096  6700

Sigue SL-12 DEB en tiempo real con AllMySat

Download on the App Store